This is the latest recevied weather packets stored in our database for station/object EA2AFZ-W. If no packets are shown the sender has not sent any weather packets the latest 10 day(s).
| Time | Temp. | Humidity | Pressure | Rain* | Wind** | Luminosity | Snow |
|---|---|---|---|---|---|---|---|
| 1788531315 | 26.11° C | 69% | 1021 hPa | 0 mm | - | - | - |
| 1788529513 | 25.56° C | 73% | 1021 hPa | 0 mm | - | - | - |
| 1788527711 | 27.22° C | 59% | 1021 hPa | 0 mm | - | - | - |
| 1788525909 | 27.78° C | 51% | 1021 hPa | 0 mm | - | - | - |
| 1788524106 | 28.33° C | 46% | 1020 hPa | 0 mm | - | - | - |
| 1788522364 | 28.33° C | 43% | 1021 hPa | 0 mm | - | - | - |
| 1788520562 | 28.89° C | 43% | 1021 hPa | 0 mm | - | - | - |
| 1788518760 | 27.22° C | 49% | 1021 hPa | 0 mm | - | - | - |
| 1788516958 | 26.67° C | 53% | 1021 hPa | 0 mm | - | - | - |
| 1788515155 | 27.22° C | 53% | 1021 hPa | 0 mm | - | - | - |
| 1788513353 | 27.22° C | 53% | 1020 hPa | 0 mm | - | - | - |
| 1788511550 | 27.22° C | 53% | 1020 hPa | 0 mm | - | - | - |
| 1788509747 | 27.22° C | 53% | 1020 hPa | 0 mm | - | - | - |
| 1788507946 | 20° C | 71% | 1020 hPa | 0 mm | - | - | - |
| 1788506144 | 20.56° C | 69% | 1020 hPa | 0 mm | - | - | - |
| 1788504340 | 18.89° C | 71% | 1019 hPa | 0 mm | - | - | - |
| 1788502539 | 18.33° C | 72% | 1019 hPa | 0 mm | - | - | - |
| 1788500736 | 18.33° C | 73% | 1019 hPa | 0 mm | - | - | - |
| 1788498933 | 18.33° C | 75% | 1019 hPa | 0 mm | - | - | - |
| 1788497132 | 18.33° C | 77% | 1019 hPa | 0 mm | - | - | - |
| 1788495329 | 18.33° C | 81% | 1019 hPa | 0 mm | - | - | - |
| 1788493526 | 17.78° C | 86% | 1019 hPa | 0 mm | - | - | - |
| 1788491724 | 17.78° C | 85% | 1020 hPa | 0 mm | - | - | - |
| 1788489922 | 17.78° C | 83% | 1020 hPa | 0 mm | - | - | - |
| 1788488119 | 17.78° C | 79% | 1020 hPa | 0 mm | - | - | - |
* Rain latest hour (hover to see other rain measurements)
** Current wind speed in m/s (hover to see current wind gust speed)